| time (UTC) | temp F | wind direction | speed MPH | gust MPH | rain 1hr in | rain 24hr in | rain mn in | humidity % | barometer mb |
| 20260508025110 | 46 | 90 | 0.0 | 0.0 | 0.00 | 0.00 | 0.00 | 62 | 1003.7 |
| 20260508024610 | 47 | 90 | 0.0 | 0.0 | 0.00 | 0.00 | 0.00 | 63 | 1003.7 |
| 20260508024110 | 47 | 90 | 0.0 | 0.0 | 0.00 | 0.00 | 0.00 | 63 | 1003.7 |
| 20260508023610 | 47 | 67 | 0.0 | 0.0 | 0.00 | 0.00 | 0.00 | 63 | 1003.7 |
| 20260508023110 | 47 | 135 | 0.0 | 0.0 | 0.00 | 0.00 | 0.00 | 63 | 1003.7 |
| 20260508022610 | 48 | 135 | 0.0 | 0.0 | 0.00 | 0.00 | 0.00 | 63 | 1003.7 |
| 20260508022110 | 48 | 157 | 0.0 | 0.0 | 0.00 | 0.00 | 0.00 | 63 | 1003.7 |
| 20260508021610 | 48 | 315 | 0.0 | 0.0 | 0.00 | 0.00 | 0.00 | 62 | 1003.7 |
| 20260508021110 | 48 | 337 | 0.0 | 0.0 | 0.00 | 0.00 | 0.00 | 60 | 1003.7 |
| 20260508020610 | 48 | 0 | 0.0 | 0.0 | 0.00 | 0.00 | 0.00 | 62 | 1003.3 |
| 20260508020110 | 48 | 45 | 0.0 | 0.0 | 0.00 | 0.00 | 0.00 | 63 | 1003.3 |
| 20260508015610 | 48 | 45 | 0.0 | 0.0 | 0.00 | 0.00 | 0.00 | 64 | 1003.3 |
| 20260508015110 | 48 | 22 | 0.0 | 0.0 | 0.00 | 0.00 | 0.00 | 64 | 1003.3 |
| 20260508014610 | 48 | 22 | 0.0 | 0.0 | 0.00 | 0.00 | 0.00 | 64 | 1003.0 |
| 20260508014110 | 49 | 22 | 0.0 | 0.0 | 0.00 | 0.00 | 0.00 | 64 | 1003.0 |
| 20260508013610 | 49 | 22 | 0.0 | 0.0 | 0.00 | 0.00 | 0.00 | 63 | 1003.0 |
| 20260508013110 | 49 | 22 | 0.0 | 0.0 | 0.00 | 0.00 | 0.00 | 63 | 1003.0 |
| 20260508012610 | 50 | 67 | 0.0 | 0.0 | 0.00 | 0.00 | 0.00 | 62 | 1003.0 |
| 20260508012110 | 50 | 67 | 0.0 | 0.0 | 0.00 | 0.00 | 0.00 | 61 | 1003.0 |
| 20260508011610 | 50 | 135 | 0.0 | 0.0 | 0.00 | 0.00 | 0.00 | 61 | 1003.0 |
| 20260508011110 | 50 | 135 | 0.0 | 0.0 | 0.00 | 0.00 | 0.00 | 60 | 1003.0 |
| 20260508010610 | 50 | 292 | 0.0 | 0.0 | 0.00 | 0.00 | 0.00 | 59 | 1002.7 |
| 20260508010110 | 51 | 45 | 0.0 | 0.0 | 0.00 | 0.00 | 0.00 | 59 | 1002.7 |
| 20260508005610 | 51 | 22 | 0.0 | 0.0 | 0.00 | 0.00 | 0.00 | 59 | 1002.7 |
| 20260508005110 | 51 | 67 | 0.0 | 0.0 | 0.00 | 0.00 | 0.00 | 60 | 1002.7 |
| 20260508004610 | 51 | 157 | 0.0 | 0.0 | 0.00 | 0.00 | 0.00 | 59 | 1002.3 |
| 20260508004110 | 51 | 135 | 0.0 | 0.0 | 0.00 | 0.00 | 0.00 | 58 | 1002.3 |
| 20260508003610 | 52 | 202 | 0.0 | 0.0 | 0.00 | 0.00 | 0.00 | 58 | 1002.0 |
| 20260508003110 | 52 | 157 | 0.0 | 0.0 | 0.00 | 0.00 | 0.00 | 58 | 1002.0 |
| 20260508002610 | 53 | 157 | 0.0 | 0.0 | 0.00 | 0.00 | 0.00 | 57 | 1002.0 |
| 20260508002110 | 53 | 45 | 0.0 | 0.0 | 0.00 | 0.00 | 0.00 | 56 | 1001.6 |
| 20260508001610 | 53 | 180 | 0.0 | 0.0 | 0.00 | 0.00 | 0.00 | 55 | 1001.6 |
| 20260508001110 | 54 | 225 | 0.0 | 0.0 | 0.00 | 0.00 | 0.00 | 56 | 1001.6 |
| 20260508000610 | 54 | 0 | 0.0 | 0.0 | 0.00 | 0.00 | 0.00 | 55 | 1001.6 |
| 20260508000110 | 55 | 67 | 0.0 | 0.0 | 0.00 | 0.00 | 0.00 | 54 | 1001.6 |
| 20260507235610 | 55 | 67 | 0.0 | 0.0 | 0.00 | 0.00 | 0.00 | 54 | 1001.6 |
| 20260507235110 | 55 | 45 | 0.0 | 0.0 | 0.00 | 0.00 | 0.00 | 53 | 1001.6 |
| 20260507234610 | 56 | 22 | 0.0 | 0.0 | 0.00 | 0.00 | 0.00 | 51 | 1001.6 |
| 20260507234110 | 56 | 315 | 0.0 | 0.0 | 0.00 | 0.00 | 0.00 | 51 | 1001.6 |
| 20260507233610 | 57 | 292 | 0.0 | 0.0 | 0.00 | 0.00 | 0.00 | 49 | 1001.3 |
| 20260507233110 | 58 | 225 | 0.0 | 0.0 | 0.00 | 0.00 | 0.00 | 47 | 1001.3 |
| 20260507232612 | 58 | 270 | 0.0 | 0.0 | 0.00 | 0.00 | 0.00 | 49 | 1001.3 |
| 20260507232110 | 59 | 247 | 0.0 | 0.0 | 0.00 | 0.00 | 0.00 | 47 | 1001.3 |
| 20260507231610 | 60 | 247 | 0.0 | 0.0 | 0.00 | 0.00 | 0.00 | 45 | 1001.0 |
| 20260507231110 | 61 | 135 | 0.0 | 1.0 | 0.00 | 0.00 | 0.00 | 43 | 1001.0 |
| 20260507230610 | 62 | 157 | 1.0 | 1.0 | 0.00 | 0.00 | 0.00 | 44 | 1001.0 |
| 20260507230110 | 61 | 157 | 0.0 | 0.0 | 0.00 | 0.00 | 0.00 | 43 | 1001.0 |
| 20260507225610 | 61 | 157 | 0.0 | 0.0 | 0.00 | 0.00 | 0.00 | 39 | 1001.0 |
| 20260507225110 | 63 | 225 | 0.0 | 0.0 | 0.00 | 0.00 | 0.00 | 39 | 1001.0 |
| 20260507224610 | 64 | 112 | 0.0 | 0.0 | 0.00 | 0.00 | 0.00 | 38 | 1000.6 |
| 20260507224110 | 66 | 157 | 0.0 | 0.0 | 0.00 | 0.00 | 0.00 | 37 | 1000.6 |
| 20260507223610 | 67 | 157 | 0.0 | 0.0 | 0.00 | 0.00 | 0.00 | 32 | 1000.6 |
| 20260507223110 | 68 | 157 | 0.0 | 1.0 | 0.00 | 0.00 | 0.00 | 31 | 1000.6 |
| 20260507222611 | 69 | 157 | 1.0 | 1.0 | 0.00 | 0.00 | 0.00 | 30 | 1000.6 |
| 20260507222111 | 72 | 157 | 1.0 | 1.0 | 0.00 | 0.00 | 0.00 | 29 | 1000.6 |
| 20260507221611 | 78 | 180 | 0.0 | 0.0 | 0.00 | 0.00 | 0.00 | 27 | 1000.3 |
| 20260507221111 | 80 | 157 | 0.0 | 1.0 | 0.00 | 0.00 | 0.00 | 26 | 1000.3 |
| 20260507220611 | 80 | 112 | 0.0 | 0.0 | 0.00 | 0.00 | 0.00 | 24 | 1000.3 |
| 20260507220111 | 86 | 90 | 0.0 | 0.0 | 0.00 | 0.00 | 0.00 | 22 | 1000.3 |
| 20260507215611 | 88 | 135 | 0.0 | 3.0 | 0.00 | 0.00 | 0.00 | 22 | 1000.3 |
| 20260507215111 | 91 | 157 | 0.0 | 2.0 | 0.00 | 0.00 | 0.00 | 24 | 1000.3 |
| 20260507214611 | 90 | 202 | 0.0 | 0.0 | 0.00 | 0.00 | 0.00 | 24 | 1000.3 |
| 20260507214111 | 88 | 112 | 0.0 | 2.0 | 0.00 | 0.00 | 0.00 | 25 | 1000.3 |
| 20260507213611 | 87 | 157 | 0.0 | 0.0 | 0.00 | 0.00 | 0.00 | 24 | 1000.3 |
| 20260507213111 | 85 | 202 | 0.0 | 0.0 | 0.00 | 0.00 | 0.00 | 25 | 1000.3 |
| 20260507212611 | 81 | 135 | 0.0 | 2.0 | 0.00 | 0.00 | 0.00 | 27 | 1000.3 |
| 20260507212111 | 81 | 157 | 1.0 | 1.0 | 0.00 | 0.00 | 0.00 | 27 | 1000.3 |
| 20260507211611 | 81 | 180 | 0.0 | 0.0 | 0.00 | 0.00 | 0.00 | 26 | 1000.6 |
| 20260507211111 | 78 | 180 | 0.0 | 3.0 | 0.00 | 0.00 | 0.00 | 27 | 1000.3 |
| 20260507210611 | 81 | 180 | 3.0 | 3.0 | 0.00 | 0.00 | 0.00 | 25 | 1000.3 |
| 20260507210111 | 83 | 90 | 3.0 | 4.0 | 0.00 | 0.00 | 0.00 | 25 | 1000.3 |
| 20260507205611 | 85 | 180 | 4.0 | 4.0 | 0.00 | 0.00 | 0.00 | 25 | 1000.3 |
| 20260507205111 | 86 | 157 | 2.0 | 3.0 | 0.00 | 0.00 | 0.00 | 26 | 1000.3 |
| 20260507204611 | 84 | 247 | 2.0 | 5.0 | 0.00 | 0.00 | 0.00 | 26 | 1000.0 |
| 20260507204111 | 84 | 90 | 5.0 | 5.0 | 0.00 | 0.00 | 0.00 | 26 | 1000.0 |
| 20260507203611 | 82 | 135 | 0.0 | 1.0 | 0.00 | 0.00 | 0.00 | 27 | 1000.0 |
| 20260507203111 | 82 | 270 | 0.0 | 0.0 | 0.00 | 0.00 | 0.00 | 24 | 1000.0 |
| 20260507202611 | 82 | 202 | 0.0 | 3.0 | 0.00 | 0.00 | 0.00 | 27 | 1000.0 |
| 20260507202111 | 81 | 225 | 0.0 | 0.0 | 0.00 | 0.00 | 0.00 | 28 | 1000.0 |
| 20260507201611 | 80 | 157 | 0.0 | 4.0 | 0.00 | 0.00 | 0.00 | 28 | 1000.0 |
| 20260507201111 | 80 | 157 | 4.0 | 4.0 | 0.00 | 0.00 | 0.00 | 29 | 1000.0 |
| 20260507200611 | 74 | 157 | 0.0 | 0.0 | 0.00 | 0.00 | 0.00 | 38 | 1000.0 |
| 20260507200111 | 74 | 247 | 0.0 | 0.0 | 0.00 | 0.00 | 0.00 | 38 | 1000.0 |
| 20260507195611 | 72 | 135 | 0.0 | 5.0 | 0.00 | 0.00 | 0.00 | 38 | 1000.0 |
| 20260507195111 | 67 | 247 | 4.0 | 5.0 | 0.00 | 0.00 | 0.00 | 40 | 1000.0 |
| 20260507194611 | 65 | 225 | 5.0 | 6.0 | 0.00 | 0.00 | 0.00 | 44 | 1000.0 |
| 20260507194111 | 64 | 247 | 3.0 | 3.0 | 0.00 | 0.00 | 0.00 | 43 | 1000.0 |
| 20260507193611 | 64 | 202 | 3.0 | 6.0 | 0.00 | 0.00 | 0.00 | 44 | 1000.3 |
| 20260507193111 | 64 | 157 | 1.0 | 2.0 | 0.00 | 0.00 | 0.00 | 48 | 1000.3 |
| 20260507192611 | 64 | 157 | 0.0 | 0.0 | 0.00 | 0.00 | 0.00 | 48 | 1000.3 |
| 20260507192111 | 63 | 180 | 0.0 | 2.0 | 0.00 | 0.00 | 0.00 | 57 | 1000.3 |
| 20260507191611 | 63 | 157 | 1.0 | 1.0 | 0.00 | 0.00 | 0.00 | 59 | 1000.3 |
| 20260507191111 | 63 | 202 | 1.0 | 3.0 | 0.00 | 0.00 | 0.00 | 57 | 1000.3 |
| 20260507190611 | 64 | 202 | 3.0 | 3.0 | 0.00 | 0.00 | 0.00 | 58 | 1000.3 |
| 20260507190111 | 63 | 202 | 0.0 | 0.0 | 0.00 | 0.00 | 0.00 | 60 | 1000.3 |
| 20260507185611 | 63 | 202 | 0.0 | 1.0 | 0.00 | 0.00 | 0.00 | 58 | 1000.3 |
| 20260507185111 | 64 | 180 | 0.0 | 5.0 | 0.00 | 0.00 | 0.00 | 58 | 1000.6 |
| 20260507184611 | 64 | 292 | 0.0 | 0.0 | 0.00 | 0.00 | 0.00 | 60 | 1000.6 |
| 20260507184111 | 63 | 135 | 0.0 | 3.0 | 0.00 | 0.00 | 0.00 | 64 | 1000.6 |
| 20260507183611 | 62 | 180 | 3.0 | 3.0 | 0.00 | 0.00 | 0.00 | 64 | 1000.6 |
| 20260507183130 | 62 | 315 | 0.0 | 6.0 | 0.00 | 0.00 | 0.00 | 64 | 1000.6 |
| 20260507162616 | 59 | 67 | 0.0 | 1.0 | 0.00 | 0.00 | 0.00 | 73 | 1001.6 |
| 20260507162112 | 59 | 157 | 1.0 | 2.0 | 0.00 | 0.00 | 0.00 | 74 | 1001.6 |
| 20260507160111 | 57 | 157 | 0.0 | 1.0 | 0.00 | 0.00 | 0.00 | 74 | 1002.0 |
| 20260507155611 | 57 | 225 | 1.0 | 1.0 | 0.00 | 0.00 | 0.00 | 75 | 1002.0 |
| 20260507155111 | 57 | 202 | 1.0 | 1.0 | 0.00 | 0.00 | 0.00 | 74 | 1002.0 |
| 20260507154613 | 57 | 247 | 0.0 | 0.0 | 0.00 | 0.00 | 0.00 | 75 | 1002.0 |
| 20260507153112 | 57 | 0 | 1.0 | 1.0 | 0.00 | 0.00 | 0.00 | 76 | 1002.0 |
| 20260507152613 | 57 | 292 | 0.0 | 1.0 | 0.00 | 0.00 | 0.00 | 74 | 1002.0 |
| 20260507152115 | 56 | 157 | 1.0 | 1.0 | 0.00 | 0.00 | 0.00 | 77 | 1002.0 |
| 20260507151613 | 56 | 180 | 0.0 | 3.0 | 0.00 | 0.00 | 0.00 | 75 | 1002.0 |
| 20260507150611 | 56 | 270 | 0.0 | 3.0 | 0.00 | 0.00 | 0.00 | 75 | 1002.3 |
| 20260507150111 | 55 | 157 | 3.0 | 3.0 | 0.00 | 0.00 | 0.00 | 75 | 1002.0 |
| 20260507145112 | 55 | 157 | 0.0 | 2.0 | 0.00 | 0.00 | 0.00 | 78 | 1002.3 |
| 20260507144616 | 54 | 180 | 2.0 | 2.0 | 0.00 | 0.00 | 0.00 | 79 | 1002.3 |
| 20260507142614 | 53 | 180 | 0.0 | 1.0 | 0.00 | 0.00 | 0.00 | 85 | 1002.7 |
| 20260507141612 | 53 | 157 | 0.0 | 0.0 | 0.00 | 0.00 | 0.00 | 88 | 1002.7 |
| 20260507140114 | 52 | 202 | 0.0 | 1.0 | 0.00 | 0.00 | 0.00 | 91 | 1002.7 |
| 20260507135615 | 51 | 157 | 1.0 | 1.0 | 0.00 | 0.00 | 0.00 | 91 | 1003.0 |
| 20260507135112 | 51 | 270 | 0.0 | 0.0 | 0.00 | 0.00 | 0.00 | 93 | 1002.7 |
| 20260507134612 | 51 | 270 | 0.0 | 0.0 | 0.00 | 0.00 | 0.00 | 93 | 1002.7 |
| 20260507134115 | 51 | 67 | 0.0 | 0.0 | 0.00 | 0.00 | 0.00 | 93 | 1002.7 |
| 20260507133614 | 50 | 180 | 0.0 | 0.0 | 0.00 | 0.00 | 0.00 | 93 | 1002.7 |
| 20260507133112 | 50 | 292 | 0.0 | 1.0 | 0.00 | 0.00 | 0.00 | 93 | 1003.0 |
| 20260507132112 | 49 | 90 | 0.0 | 0.0 | 0.00 | 0.00 | 0.00 | 93 | 1003.0 |
| 20260507131612 | 49 | 135 | 0.0 | 1.0 | 0.00 | 0.00 | 0.00 | 93 | 1002.7 |
| 20260507131112 | 49 | 90 | 0.0 | 0.0 | 0.00 | 0.00 | 0.00 | 93 | 1003.0 |
| 20260507130612 | 48 | 180 | 0.0 | 0.0 | 0.00 | 0.00 | 0.00 | 93 | 1003.0 |
| 20260507125612 | 48 | 157 | 0.0 | 1.0 | 0.00 | 0.00 | 0.00 | 93 | 1003.3 |
| 20260507125112 | 48 | 202 | 0.0 | 0.0 | 0.00 | 0.00 | 0.00 | 93 | 1003.3 |
| 20260507124612 | 47 | 135 | 0.0 | 0.0 | 0.00 | 0.00 | 0.00 | 93 | 1003.3 |
| 20260507124112 | 47 | 270 | 0.0 | 0.0 | 0.00 | 0.00 | 0.00 | 93 | 1003.3 |
| 20260507123112 | 47 | 45 | 0.0 | 0.0 | 0.00 | 0.00 | 0.00 | 93 | 1003.0 |
| 20260507122612 | 47 | 112 | 0.0 | 0.0 | 0.00 | 0.00 | 0.00 | 93 | 1003.0 |
| 20260507121612 | 47 | 247 | 0.0 | 0.0 | 0.00 | 0.00 | 0.00 | 93 | 1003.0 |
| 20260507121114 | 47 | 247 | 0.0 | 0.0 | 0.00 | 0.00 | 0.00 | 93 | 1003.0 |
| 20260507120112 | 47 | 247 | 0.0 | 0.0 | 0.00 | 0.00 | 0.00 | 93 | 1003.0 |
| 20260507115612 | 47 | 135 | 0.0 | 0.0 | 0.00 | 0.00 | 0.00 | 93 | 1003.0 |
| 20260507114613 | 48 | 135 | 0.0 | 0.0 | 0.00 | 0.00 | 0.00 | 93 | 1003.0 |
| 20260507113612 | 48 | 90 | 0.0 | 0.0 | 0.00 | 0.00 | 0.00 | 93 | 1003.0 |
| 20260507113112 | 48 | 90 | 0.0 | 0.0 | 0.00 | 0.00 | 0.00 | 93 | 1003.0 |
| 20260507112612 | 48 | 90 | 0.0 | 0.0 | 0.00 | 0.00 | 0.00 | 93 | 1003.0 |
| 20260507111614 | 47 | 90 | 0.0 | 0.0 | 0.00 | 0.00 | 0.00 | 93 | 1003.0 |
| 20260507111112 | 47 | 90 | 0.0 | 0.0 | 0.00 | 0.00 | 0.00 | 93 | 1003.3 |
| 20260507110612 | 47 | 90 | 0.0 | 0.0 | 0.00 | 0.00 | 0.00 | 93 | 1003.3 |
| 20260507110112 | 47 | 90 | 0.0 | 0.0 | 0.00 | 0.00 | 0.00 | 93 | 1003.3 |
| 20260507104112 | 46 | 90 | 0.0 | 0.0 | 0.00 | 0.00 | 0.00 | 93 | 1003.3 |
| 20260507103613 | 46 | 90 | 0.0 | 0.0 | 0.00 | 0.00 | 0.00 | 93 | 1003.3 |
| 20260507103112 | 46 | 90 | 0.0 | 0.0 | 0.00 | 0.00 | 0.00 | 93 | 1003.7 |
| 20260507101112 | 46 | 90 | 0.0 | 0.0 | 0.00 | 0.00 | 0.00 | 93 | 1003.3 |
| 20260507095614 | 46 | 90 | 0.0 | 0.0 | 0.00 | 0.00 | 0.00 | 93 | 1003.0 |
| 20260507095113 | 46 | 90 | 0.0 | 0.0 | 0.00 | 0.00 | 0.00 | 93 | 1002.7 |
| 20260507094612 | 46 | 90 | 0.0 | 0.0 | 0.00 | 0.00 | 0.00 | 93 | 1002.7 |
| 20260507094112 | 46 | 112 | 0.0 | 0.0 | 0.00 | 0.00 | 0.00 | 93 | 1003.0 |
| 20260507093114 | 46 | 112 | 0.0 | 0.0 | 0.00 | 0.00 | 0.00 | 93 | 1002.7 |
| 20260507090613 | 47 | 337 | 0.0 | 0.0 | 0.00 | 0.00 | 0.00 | 93 | 1002.7 |
| 20260507090113 | 47 | 45 | 0.0 | 0.0 | 0.00 | 0.00 | 0.00 | 93 | 1002.7 |
| 20260507085616 | 47 | 270 | 0.0 | 0.0 | 0.00 | 0.00 | 0.00 | 93 | 1002.7 |
| 20260507084112 | 48 | 247 | 0.0 | 0.0 | 0.00 | 0.00 | 0.00 | 93 | 1002.7 |
| 20260507083613 | 48 | 157 | 0.0 | 0.0 | 0.00 | 0.00 | 0.00 | 93 | 1002.7 |
| 20260507083112 | 48 | 157 | 0.0 | 0.0 | 0.00 | 0.00 | 0.00 | 93 | 1002.3 |
| 20260507082613 | 48 | 157 | 0.0 | 0.0 | 0.00 | 0.00 | 0.00 | 93 | 1002.0 |
| 20260507082113 | 48 | 112 | 0.0 | 0.0 | 0.00 | 0.00 | 0.00 | 93 | 1002.3 |
| 20260507081115 | 48 | 135 | 0.0 | 0.0 | 0.00 | 0.00 | 0.00 | 93 | 1002.7 |
| 20260507075612 | 48 | 67 | 0.0 | 0.0 | 0.00 | 0.00 | 0.00 | 93 | 1002.3 |
| 20260507075113 | 49 | 67 | 0.0 | 0.0 | 0.00 | 0.00 | 0.00 | 93 | 1002.0 |
| 20260507074612 | 49 | 67 | 0.0 | 0.0 | 0.00 | 0.00 | 0.00 | 92 | 1002.3 |
| 20260507073612 | 49 | 67 | 0.0 | 0.0 | 0.00 | 0.00 | 0.00 | 92 | 1002.3 |
| 20260507072112 | 49 | 112 | 0.0 | 0.0 | 0.00 | 0.00 | 0.00 | 92 | 1002.0 |
| 20260507071616 | 49 | 135 | 0.0 | 0.0 | 0.00 | 0.00 | 0.00 | 92 | 1002.0 |
| 20260507071113 | 49 | 135 | 0.0 | 0.0 | 0.00 | 0.00 | 0.00 | 92 | 1001.6 |
| 20260507070617 | 49 | 135 | 0.0 | 0.0 | 0.00 | 0.00 | 0.00 | 92 | 1001.6 |
| 20260507070116 | 49 | 135 | 0.0 | 0.0 | 0.00 | 0.00 | 0.00 | 92 | 1002.0 |
| 20260507065113 | 49 | 90 | 0.0 | 0.0 | 0.00 | 0.00 | 0.00 | 92 | 1001.6 |
| 20260507064612 | 50 | 90 | 0.0 | 0.0 | 0.00 | 0.00 | 0.00 | 92 | 1001.6 |
| 20260507063115 | 50 | 135 | 0.0 | 0.0 | 0.00 | 0.00 | 0.00 | 93 | 1001.6 |
| 20260507062113 | 50 | 225 | 0.0 | 0.0 | 0.00 | 0.00 | 0.00 | 93 | 1001.3 |
| 20260507061616 | 50 | 22 | 0.0 | 0.0 | 0.00 | 0.00 | 0.00 | 93 | 1001.6 |
| 20260507060613 | 50 | 157 | 0.0 | 0.0 | 0.00 | 0.00 | 0.00 | 93 | 1001.6 |
| 20260507060115 | 50 | 225 | 0.0 | 0.0 | 0.00 | 0.00 | 0.00 | 93 | 1001.3 |
| 20260507053616 | 50 | 112 | 0.0 | 0.0 | 0.00 | 0.00 | 0.00 | 93 | 1001.3 |
| 20260507052113 | 50 | 67 | 0.0 | 0.0 | 0.00 | 0.00 | 0.00 | 93 | 1001.3 |
| 20260507044613 | 50 | 90 | 0.0 | 0.0 | 0.00 | 0.00 | 0.00 | 93 | 1001.0 |
| 20260507043113 | 50 | 180 | 0.0 | 0.0 | 0.00 | 0.00 | 0.00 | 93 | 1001.3 |
| 20260507041613 | 49 | 157 | 0.0 | 0.0 | 0.00 | 0.00 | 0.00 | 92 | 1001.0 |
| 20260507041113 | 49 | 225 | 0.0 | 2.0 | 0.00 | 0.00 | 0.00 | 92 | 1000.6 |
| 20260507040613 | 49 | 180 | 1.0 | 2.0 | 0.00 | 0.00 | 0.00 | 92 | 1000.6 |
| 20260507040118 | 49 | 180 | 2.0 | 3.0 | 0.00 | 0.00 | 0.00 | 92 | 1000.6 |
| 20260507035613 | 49 | 225 | 3.0 | 3.0 | 0.00 | 0.00 | 0.00 | 92 | 1000.6 |
| 20260507035117 | 49 | 45 | 0.0 | 0.0 | 0.00 | 0.00 | 0.00 | 92 | 1000.6 |
| 20260507034113 | 49 | 225 | 0.0 | 1.0 | 0.00 | 0.00 | 0.00 | 92 | 1000.6 |
| 20260507033613 | 49 | 202 | 0.0 | 0.0 | 0.00 | 0.00 | 0.00 | 92 | 1000.6 |
| 20260507033113 | 49 | 180 | 0.0 | 0.0 | 0.00 | 0.00 | 0.00 | 92 | 1000.6 |
| 20260507032114 | 49 | 225 | 0.0 | 0.0 | 0.00 | 0.00 | 0.00 | 92 | 1000.6 |
| 20260507031615 | 49 | 247 | 0.0 | 4.0 | 0.00 | 0.00 | 0.00 | 92 | 1000.6 |
| 20260507031113 | 49 | 180 | 4.0 | 4.0 | 0.00 | 0.00 | 0.00 | 92 | 1000.6 |
| 20260507030616 | 50 | 247 | 0.0 | 0.0 | 0.00 | 0.00 | 0.00 | 92 | 1000.6 |
| 20260507030114 | 50 | 180 | 0.0 | 2.0 | 0.00 | 0.00 | 0.00 | 92 | 1000.6 |
| 20260507025613 | 50 | 202 | 2.0 | 3.0 | 0.00 | 0.00 | 0.00 | 92 | 1000.6 |